BREEZE-M DEB (TANK), 42908

Orbit data source: Space-Track

BREEZE-M DEB (TANK), 42908 is space debris in HEO originally from a launch on Wed, 16 Aug 2017 UTC launched from the Tyuratam Missile And Space Complex (TTMTR). Debris objects in space refer to the collection of defunct objects orbiting the Earth. Examples of debris include non-operational satellites, rocket bodies, and fragments generated from explosions, collisions, or faulty payload assembly.

Loading next visibility...
Identifier
42908, 2017-046B
Orbit
HEO
Country
Flag of CISCIS
Related business
Manufacturer
Khrunichev
Mission
Spacecraft
Bus & Motor
BRIZ TANK, Unknown motor
Mass
~1,000 kg wet, 1,000 kg dry
Launch date (UTC)
2017-08-16 (8 years ago)
Launch vehicle
Unknown
Launch site
Tyuratam Missile And Space Complex (TTMTR)
Object type
Payload
Rocket body
Debris
Shape & HBR
Torus, 2.0 m
Radar Cross Section
8.218 m², Large (>1 m²)

Expand to show TLE details & history
Last TLE update: 18 hours ago

TLE from 18 hours ago
0 BREEZE-M DEB (TANK)
1 42908U 17046B   25352.06369688  .00007138  00000-0  16762-2 0  9997
2 42908  48.1295 190.7543 7198018  40.2571 355.2359  2.38813534 70901
Epoch: 2025-12-18T01:31Z
TLE epoch observation values (Epoch: 2025-12-18T01:31:43.410Z)
Latitude
-0.00034°
Longitude
80.86409°
Altitude
962.017 km
Speed
9.579 km/s
True Right ascension
12h 42m 52s
True Declination
0° 00' 01"
Sunlit
Object was in daylight at epoch
Visualization orbit readout
Latitude
Unknown
Longitude
Unknown
Altitude
Unknown
Speed
Unknown
Apparent Right ascension
Unknown
Apparent Declination
Unknown
Sunlit
N/A
Visualization observer readout
Local Sidereal Time
18:45:16
Azimuth
Unknown
Elevation
Unknown
Doppler factor
Unknown
Orbital elements
Apogee altitude
34,284.146 km
Perigee altitude
246.753 km
Semi-major axis
23,643.587 km
Eccentricity
0.7198
Inclination
48.1295°
RAAN
190.7543°
Arg. of periapsis
40.2571°
True anomaly
320.64588°
Mean anomaly
355.2359°
Eccentric anomaly
343.57314°
Mean motion
0.597 °/min
Orbital period
603.02 mins
BSTAR
0.0016762
Loading maneuver chart data...
Computing Atmospheric mass density...
Loading historical data...
Loading historical data...
Loading historical data...
Loading historical data...
Loading historical data...
Loading historical data...
Loading historical data...
Other satellites on launch #46 in the year 2017 (2017-08-16 UTC)

Documentation

Showing up to 5 results
|